Location: Peterborough
(44.3091°N, 78.3197°W)
Time: 03:45:24
(UTC-04:00)

S-56A Canister/Altair - Pass Details

Date: 24 March 2023
Orbit: 639 x 2492 km, 38.9° (Epoch: 08 June)

Event Time Altitude Azimuth Distance (km) Brightness Sun altitude
Rises 22:26:00 0° 260° (W) 5,456 12.4 -30.0°
Reaches altitude 10° 22:29:16 10° 258° (WSW) 4,644 11.9 -30.4°
Maximum altitude 22:42:54 71° 178° (S) 2,566 9.8 -32.3°
Enters shadow 22:47:23 53° 117° (ESE) 2,914 9.9 -32.9°
Drops below altitude 10° 22:57:45 10° 99° (E) 5,006 - -34.2°
Sets 23:01:25 0° 98° (E) 5,887 - -34.7°
